Time,TemperatureF,DewpointF,PressureIn,WindDirection,WindDirectionDegrees,WindSpeedMPH,WindSpeedGustMPH,Humidity,HourlyPrecipIn,Conditions,Clouds,dailyrainin,SoftwareType,DateUTC
2013-01-18 00:02:00,26.0,16.0,30.37,East,101,6.0,-999.0,65,-99.99,,,-99.99,,2013-01-18 08:02:00,
2013-01-18 00:32:00,23.0,15.0,30.37,ENE,73,4.0,-999.0,70,-99.99,,,-99.99,,2013-01-18 08:32:00,
2013-01-18 00:53:00,23.0,15.0,30.37,East,87,6.0,-999.0,71,-99.99,,,-99.99,,2013-01-18 08:53:00,
2013-01-18 01:02:00,24.0,16.0,30.36,North,10,3.0,-999.0,70,-99.99,,,-99.99,,2013-01-18 09:02:00,
2013-01-18 01:32:00,24.0,16.0,30.36,NE,47,9.0,-999.0,71,-99.99,,,-99.99,,2013-01-18 09:32:00,
2013-01-18 01:52:00,24.0,18.0,30.36,NE,56,5.0,-999.0,76,-99.99,,,-99.99,,2013-01-18 09:52:00,
2013-01-18 02:02:00,24.0,16.0,30.36,ENE,65,6.0,-999.0,72,-99.99,,,-99.99,,2013-01-18 10:02:00,
2013-01-18 02:22:00,23.0,15.0,30.36,NE,55,7.0,-999.0,72,-99.99,,,-99.99,,2013-01-18 10:22:00,
2013-01-18 02:32:00,24.0,16.0,30.35,NE,48,10.0,-999.0,71,-99.99,,,-99.99,,2013-01-18 10:32:00,
2013-01-18 02:52:00,24.0,16.0,30.36,NE,36,8.0,-999.0,71,-99.99,,,-99.99,,2013-01-18 10:52:00,
2013-01-18 03:02:00,22.0,14.0,30.35,East,94,4.0,-999.0,72,-99.99,,,-99.99,,2013-01-18 11:02:00,
2013-01-18 03:32:00,18.0,11.0,30.35,East,90,0.0,-999.0,74,-99.99,,,-99.99,,2013-01-18 11:32:00,
2013-01-18 04:02:00,18.0,11.0,30.35,East,90,0.0,-999.0,74,-99.99,,,-99.99,,2013-01-18 12:02:00,
2013-01-18 04:33:00,19.0,14.0,30.35,East,86,5.0,-999.0,80,-99.99,,,-99.99,,2013-01-18 12:33:00,
2013-01-18 04:53:00,20.0,15.0,30.34,East,95,6.0,-999.0,79,-99.99,,,-99.99,,2013-01-18 12:53:00,
2013-01-18 05:22:00,19.0,14.0,30.33,East,90,4.0,-999.0,81,-99.99,,,-99.99,,2013-01-18 13:22:00,
2013-01-18 05:33:00,21.0,15.0,30.34,East,88,2.0,-999.0,76,-99.99,,,-99.99,,2013-01-18 13:33:00,
2013-01-18 05:52:00,20.0,14.0,30.34,East,82,4.0,-999.0,77,-99.99,,,-99.99,,2013-01-18 13:52:00,
2013-01-18 06:03:00,18.0,13.0,30.34,East,87,8.0,-999.0,81,-99.99,,,-99.99,,2013-01-18 14:03:00,
2013-01-18 06:22:00,17.0,12.0,30.34,ESE,111,7.0,-999.0,82,-99.99,,,-99.99,,2013-01-18 14:22:00,
2013-01-18 06:33:00,19.0,14.0,30.34,East,87,6.0,-999.0,81,-99.99,,,-99.99,,2013-01-18 14:33:00,
2013-01-18 06:53:00,17.0,12.0,30.34,ENE,70,8.0,-999.0,82,-99.99,,,-99.99,,2013-01-18 14:53:00,
2013-01-18 07:02:00,20.0,14.0,30.33,ESE,115,5.0,-999.0,77,-99.99,,,-99.99,,2013-01-18 15:02:00,
2013-01-18 07:33:00,18.0,12.0,30.35,East,94,0.0,-999.0,78,-99.99,,,-99.99,,2013-01-18 15:33:00,
2013-01-18 07:52:00,17.0,12.0,30.35,East,94,0.0,-999.0,80,-99.99,,,-99.99,,2013-01-18 15:52:00,
2013-01-18 08:02:00,15.0,12.0,30.36,East,94,0.0,-999.0,86,-99.99,,,-99.99,,2013-01-18 16:02:00,
2013-01-18 08:32:00,14.0,10.0,30.36,East,94,0.0,-999.0,85,-99.99,,,-99.99,,2013-01-18 16:32:00,
2013-01-18 09:02:00,18.0,14.0,30.38,SE,130,2.0,-999.0,85,-99.99,,,-99.99,,2013-01-18 17:02:00,
2013-01-18 09:23:00,19.0,14.0,30.38,East,86,3.0,-999.0,81,-99.99,,,-99.99,,2013-01-18 17:23:00,
2013-01-18 09:33:00,21.0,15.0,30.38,East,83,7.0,-999.0,78,-99.99,,,-99.99,,2013-01-18 17:33:00,
2013-01-18 09:52:00,23.0,17.0,30.38,ESE,103,5.0,-999.0,76,-99.99,,,-99.99,,2013-01-18 17:52:00,
2013-01-18 10:03:00,23.0,16.0,30.38,East,84,5.0,-999.0,74,-99.99,,,-99.99,,2013-01-18 18:03:00,
2013-01-18 10:22:00,23.0,16.0,30.38,East,101,6.0,-999.0,74,-99.99,,,-99.99,,2013-01-18 18:22:00,
2013-01-18 10:32:00,23.0,16.0,30.38,East,90,3.0,-999.0,75,-99.99,,,-99.99,,2013-01-18 18:32:00,
2013-01-18 11:02:00,28.0,18.0,30.38,East,90,2.0,-999.0,66,-99.99,,,-99.99,,2013-01-18 19:02:00,
2013-01-18 11:22:00,28.0,18.0,30.37,East,80,3.0,-999.0,65,-99.99,,,-99.99,,2013-01-18 19:22:00,
2013-01-18 11:32:00,28.0,17.0,30.37,ENE,65,8.0,-999.0,64,-99.99,,,-99.99,,2013-01-18 19:32:00,
2013-01-18 11:42:00,28.0,17.0,30.37,ENE,65,8.0,-999.0,64,-99.99,,,-99.99,,2013-01-18 19:42:00,
2013-01-18 11:52:00,28.0,18.0,30.36,East,81,8.0,-999.0,65,-99.99,,,-99.99,,2013-01-18 19:52:00,
2013-01-18 12:02:00,28.0,18.0,30.36,East,81,8.0,-999.0,65,-99.99,,,-99.99,,2013-01-18 20:02:00,
2013-01-18 12:12:00,28.0,18.0,30.36,East,81,8.0,-999.0,65,-99.99,,,-99.99,,2013-01-18 20:12:00,
2013-01-18 12:22:00,28.0,18.0,30.36,East,81,8.0,-999.0,65,-99.99,,,-99.99,,2013-01-18 20:22:00,
2013-01-18 12:33:00,30.0,19.0,30.35,ENE,76,4.0,-999.0,63,-99.99,,,-99.99,,2013-01-18 20:33:00,
2013-01-18 12:43:00,30.0,19.0,30.35,ENE,76,4.0,-999.0,63,-99.99,,,-99.99,,2013-01-18 20:43:00,
2013-01-18 12:53:00,32.0,19.0,30.34,East,92,4.0,-999.0,58,-99.99,,,-99.99,,2013-01-18 20:53:00,
2013-01-18 13:02:00,34.0,20.0,30.34,East,95,2.0,-999.0,56,-99.99,,,-99.99,,2013-01-18 21:02:00,
2013-01-18 13:12:00,34.0,20.0,30.34,East,95,2.0,-999.0,56,-99.99,,,-99.99,,2013-01-18 21:12:00,
2013-01-18 13:22:00,34.0,20.0,30.34,East,95,2.0,-999.0,56,-99.99,,,-99.99,,2013-01-18 21:22:00,
2013-01-18 13:33:00,33.0,22.0,30.33,SSW,203,0.0,-999.0,63,-99.99,,,-99.99,,2013-01-18 21:33:00,
2013-01-18 13:43:00,33.0,22.0,30.33,SSW,203,0.0,-999.0,63,-99.99,,,-99.99,,2013-01-18 21:43:00,
2013-01-18 13:53:00,33.0,22.0,30.33,SSW,203,0.0,-999.0,63,-99.99,,,-99.99,,2013-01-18 21:53:00,
2013-01-18 14:02:00,35.0,23.0,30.32,SSW,203,0.0,-999.0,61,-99.99,,,-99.99,,2013-01-18 22:02:00,
2013-01-18 14:12:00,35.0,23.0,30.32,SSW,203,0.0,-999.0,61,-99.99,,,-99.99,,2013-01-18 22:12:00,
2013-01-18 14:22:00,35.0,23.0,30.32,SSW,203,0.0,-999.0,61,-99.99,,,-99.99,,2013-01-18 22:22:00,
2013-01-18 14:32:00,36.0,23.0,30.31,SSW,203,0.0,-999.0,59,-99.99,,,-99.99,,2013-01-18 22:32:00,
2013-01-18 14:42:00,36.0,23.0,30.31,SSW,203,0.0,-999.0,59,-99.99,,,-99.99,,2013-01-18 22:42:00,
2013-01-18 14:53:00,36.0,23.0,30.31,SSW,203,0.0,-999.0,60,-99.99,,,-99.99,,2013-01-18 22:53:00,
2013-01-18 15:02:00,37.0,24.0,30.31,SSW,204,0.0,-999.0,58,-99.99,,,-99.99,,2013-01-18 23:02:00,
2013-01-18 15:11:00,37.0,24.0,30.31,SSW,204,0.0,-999.0,58,-99.99,,,-99.99,,2013-01-18 23:11:00,
2013-01-18 15:22:00,38.0,24.0,30.31,SSW,204,0.0,-999.0,57,-99.99,,,-99.99,,2013-01-18 23:22:00,
2013-01-18 15:32:00,38.0,24.0,30.31,SSW,204,0.0,-999.0,57,-99.99,,,-99.99,,2013-01-18 23:32:00,
2013-01-18 15:42:00,38.0,24.0,30.31,SSW,204,0.0,-999.0,57,-99.99,,,-99.99,,2013-01-18 23:42:00,
2013-01-18 15:52:00,38.0,23.0,30.32,SSW,204,0.0,-999.0,55,-99.99,,,-99.99,,2013-01-18 23:52:00,
2013-01-18 16:02:00,37.0,23.0,30.31,SSW,204,0.0,-999.0,57,-99.99,,,-99.99,,2013-01-19 00:02:00,
2013-01-18 16:12:00,37.0,23.0,30.31,SSW,204,0.0,-999.0,57,-99.99,,,-99.99,,2013-01-19 00:12:00,
2013-01-18 16:22:00,38.0,22.0,30.31,SSW,204,0.0,-999.0,53,-99.99,,,-99.99,,2013-01-19 00:22:00,
2013-01-18 16:32:00,33.0,20.0,30.31,East,101,0.0,-999.0,58,-99.99,,,-99.99,,2013-01-19 00:32:00,
2013-01-18 16:42:00,33.0,20.0,30.31,East,101,0.0,-999.0,58,-99.99,,,-99.99,,2013-01-19 00:42:00,
2013-01-18 16:52:00,33.0,20.0,30.31,East,101,0.0,-999.0,58,-99.99,,,-99.99,,2013-01-19 00:52:00,
2013-01-18 17:02:00,27.0,17.0,30.32,East,100,0.0,-999.0,65,-99.99,,,-99.99,,2013-01-19 01:02:00,
2013-01-18 17:22:00,26.0,17.0,30.32,East,88,2.0,-999.0,68,-99.99,,,-99.99,,2013-01-19 01:22:00,
2013-01-18 17:32:00,25.0,17.0,30.32,ENE,77,2.0,-999.0,71,-99.99,,,-99.99,,2013-01-19 01:32:00,
2013-01-18 17:42:00,25.0,17.0,30.32,ENE,77,2.0,-999.0,71,-99.99,,,-99.99,,2013-01-19 01:42:00,
2013-01-18 17:52:00,25.0,17.0,30.32,ENE,77,2.0,-999.0,71,-99.99,,,-99.99,,2013-01-19 01:52:00,
2013-01-18 18:02:00,25.0,17.0,30.32,NE,53,2.0,-999.0,72,-99.99,,,-99.99,,2013-01-19 02:02:00,
2013-01-18 18:12:00,25.0,17.0,30.32,NE,53,2.0,-999.0,72,-99.99,,,-99.99,,2013-01-19 02:12:00,
2013-01-18 18:22:00,25.0,17.0,30.32,NE,53,2.0,-999.0,72,-99.99,,,-99.99,,2013-01-19 02:22:00,
2013-01-18 18:32:00,28.0,18.0,30.32,East,85,3.0,-999.0,65,-99.99,,,-99.99,,2013-01-19 02:32:00,
2013-01-18 18:42:00,28.0,18.0,30.32,East,85,3.0,-999.0,65,-99.99,,,-99.99,,2013-01-19 02:42:00,
2013-01-18 18:53:00,28.0,17.0,30.32,East,86,1.0,-999.0,64,-99.99,,,-99.99,,2013-01-19 02:53:00,
2013-01-18 19:02:00,27.0,18.0,30.32,East,86,0.0,-999.0,68,-99.99,,,-99.99,,2013-01-19 03:02:00,
2013-01-18 19:12:00,27.0,18.0,30.32,East,86,0.0,-999.0,68,-99.99,,,-99.99,,2013-01-19 03:12:00,
2013-01-18 19:22:00,26.0,17.0,30.32,East,86,0.0,-999.0,68,-99.99,,,-99.99,,2013-01-19 03:22:00,
2013-01-18 19:32:00,26.0,17.0,30.32,East,86,0.0,-999.0,68,-99.99,,,-99.99,,2013-01-19 03:32:00,
2013-01-18 19:42:00,26.0,17.0,30.32,East,86,0.0,-999.0,68,-99.99,,,-99.99,,2013-01-19 03:42:00,
2013-01-18 19:52:00,24.0,16.0,30.33,East,81,2.0,-999.0,71,-99.99,,,-99.99,,2013-01-19 03:52:00,
2013-01-18 20:02:00,26.0,17.0,30.32,East,81,1.0,-999.0,67,-99.99,,,-99.99,,2013-01-19 04:02:00,
2013-01-18 20:12:00,26.0,17.0,30.32,East,81,1.0,-999.0,67,-99.99,,,-99.99,,2013-01-19 04:12:00,
2013-01-18 20:22:00,26.0,16.0,30.32,East,79,1.0,-999.0,66,-99.99,,,-99.99,,2013-01-19 04:22:00,
2013-01-18 20:32:00,25.0,15.0,30.33,ENE,77,1.0,-999.0,64,-99.99,,,-99.99,,2013-01-19 04:32:00,
2013-01-18 20:52:00,24.0,15.0,30.33,ENE,69,3.0,-999.0,68,-99.99,,,-99.99,,2013-01-19 04:52:00,
2013-01-18 21:03:00,27.0,16.0,30.33,East,84,4.0,-999.0,64,-99.99,,,-99.99,,2013-01-19 05:03:00,
2013-01-18 21:32:00,28.0,16.0,30.33,ENE,69,7.0,-999.0,61,-99.99,,,-99.99,,2013-01-19 05:32:00,
2013-01-18 21:52:00,28.0,17.0,30.33,ENE,77,10.0,-999.0,62,-99.99,,,-99.99,,2013-01-19 05:52:00,
2013-01-18 22:02:00,28.0,17.0,30.34,NE,44,8.0,-999.0,62,-99.99,,,-99.99,,2013-01-19 06:02:00,
2013-01-18 22:22:00,28.0,17.0,30.34,NE,37,10.0,-999.0,63,-99.99,,,-99.99,,2013-01-19 06:22:00,
2013-01-18 23:52:00,24.0,16.0,30.34,ENE,67,5.0,-999.0,72,-99.99,,,-99.99,,2013-01-19 07:52:00,